NOK1802 VTBS-VTSM

Flight info

Callsign NOK1802
Flight time 0h 44m
Altitude 34000
Route KASNI1G KASNI M757 MABKO W33 UPNEP
Aircraft B738/M-SDFGHIJ1RWYSB1/L

Departure

Time 2026-04-14 07:53
Airport Suvarnabhumi Airport (VTBS)

Arrival

Time 2026-04-14 08:38
Airport Samui International Airport (VTSM)
Time Latitude Longitude Altitude Speed Heading
2026-04-14 06:58 13.69354 100.74519 13 ft 0 kts 194°
2026-04-14 07:34 13.69412 100.74535 15 ft 4 kts 199°
2026-04-14 07:34 13.69432 100.74548 15 ft 4 kts 252°
2026-04-14 07:34 13.69432 100.74573 14 ft 2 kts 281°
2026-04-14 07:35 13.69430 100.74579 15 ft 0 kts 281°
2026-04-14 07:38 13.69432 100.74571 13 ft 6 kts 281°
2026-04-14 07:38 13.69444 100.74516 13 ft 8 kts 284°
2026-04-14 07:38 13.69458 100.74459 13 ft 8 kts 284°
2026-04-14 07:38 13.69473 100.74403 13 ft 8 kts 284°
2026-04-14 07:39 13.69486 100.74349 13 ft 8 kts 284°
2026-04-14 07:39 13.69509 100.74301 13 ft 7 kts 318°
2026-04-14 07:39 13.69558 100.74296 13 ft 7 kts 13°
2026-04-14 07:39 13.69615 100.74310 13 ft 11 kts 14°
2026-04-14 07:40 13.69710 100.74336 13 ft 15 kts 15°
2026-04-14 07:40 13.69813 100.74362 13 ft 15 kts 13°
2026-04-14 07:40 13.69911 100.74387 13 ft 14 kts 17°
2026-04-14 07:40 13.70005 100.74413 13 ft 14 kts 14°
2026-04-14 07:41 13.70095 100.74437 13 ft 13 kts 14°
2026-04-14 07:41 13.70182 100.74459 13 ft 13 kts 14°
2026-04-14 07:41 13.70256 100.74479 13 ft 7 kts 14°
2026-04-14 07:41 13.70300 100.74491 14 ft 0 kts 14°
2026-04-14 07:42 13.70304 100.74492 13 ft 5 kts
2026-04-14 07:42 13.70330 100.74458 13 ft 7 kts 286°
2026-04-14 07:43 13.70342 100.74412 14 ft 7 kts 284°
2026-04-14 07:43 13.70344 100.74366 14 ft 7 kts 256°
2026-04-14 07:43 13.70333 100.74319 14 ft 6 kts 256°
2026-04-14 07:43 13.70308 100.74302 14 ft 0 kts 193°
2026-04-14 07:44 13.70265 100.74291 14 ft 16 kts 194°
2026-04-14 07:44 13.70219 100.74280 16 ft 0 kts 194°
2026-04-14 07:47 13.70188 100.74271 15 ft 8 kts 194°
2026-04-14 07:47 13.70130 100.74256 14 ft 9 kts 195°
2026-04-14 07:47 13.70029 100.74230 13 ft 18 kts 194°
2026-04-14 07:47 13.69980 100.74217 13 ft 2 kts 194°
2026-04-14 07:48 13.69953 100.74220 14 ft 5 kts 158°
2026-04-14 07:48 13.69920 100.74283 13 ft 10 kts 105°
2026-04-14 07:48 13.69907 100.74356 3 ft 10 kts 79°
2026-04-14 07:48 13.69961 100.74400 13 ft 10 kts 15°
2026-04-14 07:49 13.70034 100.74420 13 ft 13 kts 15°
2026-04-14 07:49 13.70132 100.74446 13 ft 15 kts 15°
2026-04-14 07:49 13.70232 100.74473 13 ft 14 kts 15°
2026-04-14 07:49 13.70310 100.74474 14 ft 11 kts 331°
2026-04-14 07:50 13.70338 100.74432 13 ft 11 kts 290°
2026-04-14 07:50 13.70340 100.74335 14 ft 9 kts 261°
2026-04-14 07:50 13.70321 100.74306 16 ft 8 kts 198°
2026-04-14 07:50 13.70308 100.74303 14 ft 0 kts 194°
2026-04-14 07:53 13.70211 100.74277 17 ft 46 kts 194°
2026-04-14 07:53 13.69633 100.74125 10 ft 123 kts 194°
2026-04-14 07:53 13.68637 100.73857 242 ft 165 kts 195°
2026-04-14 07:53 13.67464 100.73533 1072 ft 173 kts 193°
2026-04-14 07:54 13.66369 100.73246 2324 ft 156 kts 193°
2026-04-14 07:54 13.65292 100.72969 2972 ft 166 kts 194°
2026-04-14 07:54 13.64139 100.72671 3460 ft 185 kts 193°
2026-04-14 07:54 13.62792 100.72321 3760 ft 211 kts 193°
2026-04-14 07:55 13.61277 100.71924 3967 ft 237 kts 194°
2026-04-14 07:55 13.59638 100.71493 4455 ft 250 kts 194°
2026-04-14 07:55 13.57875 100.71027 4800 ft 270 kts 194°
2026-04-14 07:55 13.56037 100.70543 5556 ft 274 kts 194°
2026-04-14 07:56 13.54184 100.70056 6384 ft 277 kts 194°
2026-04-14 07:56 13.52297 100.69572 7079 ft 282 kts 191°
2026-04-14 07:56 13.50339 100.69318 7804 ft 286 kts 184°
2026-04-14 07:56 13.48341 100.69198 8543 ft 290 kts 182°
2026-04-14 07:57 13.46310 100.69098 9242 ft 295 kts 182°
2026-04-14 07:57 13.44245 100.68988 9807 ft 298 kts 182°
2026-04-14 07:57 13.42175 100.68865 9949 ft 298 kts 182°
2026-04-14 07:57 13.40122 100.68735 9987 ft 300 kts 183°
2026-04-14 07:58 13.38008 100.68595 9990 ft 301 kts 183°
2026-04-14 07:58 13.35917 100.68454 9993 ft 301 kts 183°
2026-04-14 07:58 13.33830 100.68310 9993 ft 301 kts 183°
2026-04-14 07:58 13.31745 100.68167 9998 ft 301 kts 183°
2026-04-14 07:59 13.29660 100.68023 9993 ft 301 kts 183°
2026-04-14 07:59 13.27562 100.67909 10011 ft 305 kts 180°
2026-04-14 07:59 13.25376 100.67884 10158 ft 326 kts 179°
2026-04-14 07:59 13.23033 100.67886 10351 ft 346 kts 179°
2026-04-14 08:00 13.20592 100.67887 10803 ft 355 kts 179°
2026-04-14 08:00 13.18118 100.67883 11498 ft 355 kts 179°
2026-04-14 08:00 13.15640 100.67873 12197 ft 357 kts 180°
2026-04-14 08:00 13.13146 100.67860 12892 ft 360 kts 180°
2026-04-14 08:01 13.10635 100.67845 13581 ft 363 kts 180°
2026-04-14 08:01 13.08099 100.67830 14172 ft 366 kts 180°
2026-04-14 08:01 13.05530 100.67822 14743 ft 371 kts 180°
2026-04-14 08:01 13.02938 100.67821 15323 ft 375 kts 180°
2026-04-14 08:02 13.00315 100.67828 15925 ft 378 kts 180°
2026-04-14 08:02 12.97674 100.67844 16541 ft 381 kts 180°
2026-04-14 08:02 12.95021 100.67764 17155 ft 382 kts 188°
2026-04-14 08:02 12.92401 100.67265 17783 ft 384 kts 193°
2026-04-14 08:03 12.89795 100.66658 18393 ft 385 kts 193°
2026-04-14 08:03 12.87144 100.66256 18937 ft 387 kts 184°
2026-04-14 08:03 12.84435 100.66179 19402 ft 392 kts 181°
2026-04-14 08:03 12.81690 100.66169 19845 ft 397 kts 180°
2026-04-14 08:04 12.78913 100.66170 20284 ft 401 kts 180°
2026-04-14 08:04 12.76098 100.66159 20635 ft 408 kts 180°
2026-04-14 08:04 12.73241 100.66130 21067 ft 412 kts 181°
2026-04-14 08:04 12.70367 100.66087 21548 ft 414 kts 181°
2026-04-14 08:05 12.67477 100.66033 21990 ft 418 kts 181°
2026-04-14 08:05 12.64557 100.65972 22422 ft 421 kts 181°
2026-04-14 08:05 12.61617 100.65906 22844 ft 424 kts 181°
2026-04-14 08:05 12.58653 100.65839 23255 ft 428 kts 181°
2026-04-14 08:06 12.55699 100.65771 23617 ft 431 kts 181°
2026-04-14 08:06 12.52696 100.65701 23973 ft 433 kts 181°
2026-04-14 08:06 12.49677 100.65632 24336 ft 435 kts 181°
2026-04-14 08:06 12.46638 100.65562 24686 ft 437 kts 181°
2026-04-14 08:07 12.43589 100.65492 25025 ft 440 kts 181°
2026-04-14 08:07 12.40517 100.65421 25356 ft 443 kts 181°
2026-04-14 08:07 12.37431 100.65350 25684 ft 445 kts 181°
2026-04-14 08:07 12.34325 100.65279 26015 ft 447 kts 181°
2026-04-14 08:08 12.31207 100.65208 26327 ft 450 kts 181°
2026-04-14 08:08 12.28072 100.65137 26641 ft 452 kts 181°
2026-04-14 08:08 12.24922 100.65065 26960 ft 454 kts 181°
2026-04-14 08:08 12.21755 100.64992 27276 ft 456 kts 181°
2026-04-14 08:09 12.18574 100.64920 27576 ft 458 kts 181°
2026-04-14 08:09 12.15380 100.64847 27869 ft 460 kts 181°
2026-04-14 08:09 12.12171 100.64774 28157 ft 463 kts 181°
2026-04-14 08:09 12.08940 100.64700 28429 ft 465 kts 181°
2026-04-14 08:10 12.05699 100.64626 28708 ft 467 kts 181°
2026-04-14 08:10 12.02440 100.64552 28973 ft 469 kts 181°
2026-04-14 08:10 11.99174 100.64477 29292 ft 470 kts 181°
2026-04-14 08:10 11.95910 100.64403 29695 ft 469 kts 181°
2026-04-14 08:11 11.92654 100.64329 30104 ft 467 kts 181°
2026-04-14 08:11 11.89409 100.64255 30450 ft 466 kts 181°
2026-04-14 08:11 11.86171 100.64182 30793 ft 465 kts 181°
2026-04-14 08:11 11.82897 100.64107 31153 ft 464 kts 181°
2026-04-14 08:12 11.79670 100.64034 31523 ft 463 kts 181°
2026-04-14 08:12 11.76459 100.63961 31890 ft 462 kts 181°
2026-04-14 08:12 11.73250 100.63888 32241 ft 461 kts 181°
2026-04-14 08:12 11.70049 100.63815 32617 ft 459 kts 181°
2026-04-14 08:13 11.66892 100.63743 32859 ft 461 kts 181°
2026-04-14 08:13 11.60390 100.63595 32851 ft 464 kts 182°
2026-04-14 08:14 11.54024 100.63451 32842 ft 457 kts 182°
2026-04-14 08:14 11.47616 100.63305 32862 ft 458 kts 182°
2026-04-14 08:15 11.41230 100.63160 32860 ft 460 kts 182°
2026-04-14 08:15 11.34821 100.63015 32856 ft 461 kts 182°
2026-04-14 08:16 11.28401 100.62869 32852 ft 462 kts 182°
2026-04-14 08:16 11.21979 100.62724 32848 ft 460 kts 182°
2026-04-14 08:17 11.15645 100.62581 32717 ft 451 kts 182°
2026-04-14 08:17 11.12523 100.62511 32420 ft 447 kts 182°
2026-04-14 08:17 11.09432 100.62441 32114 ft 442 kts 181°
2026-04-14 08:17 11.06371 100.62372 31796 ft 438 kts 181°
2026-04-14 08:18 11.03366 100.62303 31446 ft 437 kts 181°
2026-04-14 08:18 11.00295 100.62234 31084 ft 436 kts 181°
2026-04-14 08:18 10.97302 100.62166 30676 ft 436 kts 181°
2026-04-14 08:18 10.94232 100.62096 30268 ft 436 kts 181°
2026-04-14 08:19 10.91201 100.62028 29852 ft 435 kts 181°
2026-04-14 08:19 10.88233 100.61961 29382 ft 430 kts 181°
2026-04-14 08:19 10.85256 100.61893 28900 ft 426 kts 181°
2026-04-14 08:19 10.82309 100.61827 28413 ft 422 kts 181°
2026-04-14 08:20 10.79381 100.61761 27911 ft 420 kts 181°
2026-04-14 08:20 10.76464 100.61695 27414 ft 419 kts 181°
2026-04-14 08:20 10.73560 100.61629 26937 ft 416 kts 181°
2026-04-14 08:20 10.70671 100.61564 26454 ft 414 kts 181°
2026-04-14 08:21 10.67798 100.61499 25945 ft 413 kts 181°
2026-04-14 08:21 10.64920 100.61434 25384 ft 413 kts 180°
2026-04-14 08:21 10.62046 100.61369 24841 ft 413 kts 180°
2026-04-14 08:21 10.59176 100.61304 24317 ft 413 kts 180°
2026-04-14 08:22 10.56309 100.61192 23790 ft 413 kts 186°
2026-04-14 08:22 10.53506 100.60568 23237 ft 413 kts 198°
2026-04-14 08:22 10.50852 100.59463 22626 ft 411 kts 207°
2026-04-14 08:22 10.48413 100.57985 21861 ft 407 kts 211°
2026-04-14 08:23 10.45987 100.56429 21015 ft 406 kts 212°
2026-04-14 08:23 10.43609 100.54897 20180 ft 404 kts 212°
2026-04-14 08:23 10.41265 100.53391 19397 ft 403 kts 212°
2026-04-14 08:23 10.38902 100.51882 18606 ft 400 kts 212°
2026-04-14 08:24 10.36549 100.50386 17784 ft 398 kts 212°
2026-04-14 08:24 10.34179 100.48883 16891 ft 395 kts 211°
2026-04-14 08:24 10.31887 100.47432 16055 ft 392 kts 211°
2026-04-14 08:24 10.29575 100.45971 15212 ft 390 kts 211°
2026-04-14 08:25 10.27280 100.44522 14425 ft 387 kts 211°
2026-04-14 08:25 10.24999 100.43081 13635 ft 385 kts 211°
2026-04-14 08:25 10.22744 100.41657 12914 ft 378 kts 211°
2026-04-14 08:25 10.20526 100.40257 12172 ft 373 kts 211°
2026-04-14 08:26 10.18336 100.38874 11506 ft 367 kts 211°
2026-04-14 08:26 10.16195 100.37522 11006 ft 357 kts 211°
2026-04-14 08:26 10.14117 100.36211 10572 ft 347 kts 211°
2026-04-14 08:26 10.12104 100.34940 10257 ft 334 kts 211°
2026-04-14 08:27 10.10172 100.33721 10035 ft 320 kts 211°
2026-04-14 08:27 10.08327 100.32557 9872 ft 305 kts 211°
2026-04-14 08:27 10.06561 100.31443 9726 ft 294 kts 211°
2026-04-14 08:27 10.04847 100.30362 9552 ft 287 kts 211°
2026-04-14 08:28 10.03161 100.29299 9305 ft 284 kts 211°
2026-04-14 08:28 10.01491 100.28247 9041 ft 282 kts 211°
2026-04-14 08:28 9.99833 100.27202 8772 ft 280 kts 211°
2026-04-14 08:28 9.98197 100.26171 8532 ft 273 kts 211°
2026-04-14 08:29 9.96595 100.25161 8152 ft 269 kts 211°
2026-04-14 08:29 9.95009 100.24162 7739 ft 268 kts 211°
2026-04-14 08:29 9.93430 100.23167 7318 ft 267 kts 211°
2026-04-14 08:29 9.91855 100.22174 6896 ft 266 kts 211°
2026-04-14 08:30 9.90283 100.21185 6468 ft 265 kts 211°
2026-04-14 08:30 9.88720 100.20200 6073 ft 263 kts 211°
2026-04-14 08:30 9.87174 100.19226 5615 ft 260 kts 211°
2026-04-14 08:30 9.85661 100.18273 5227 ft 253 kts 211°
2026-04-14 08:31 9.84183 100.17342 4839 ft 248 kts 211°
2026-04-14 08:31 9.81314 100.15536 4060 ft 238 kts 211°
2026-04-14 08:31 9.79918 100.14656 3675 ft 235 kts 211°
2026-04-14 08:32 9.78544 100.13791 3365 ft 228 kts 211°
2026-04-14 08:32 9.77249 100.12976 3310 ft 210 kts 211°
2026-04-14 08:32 9.76047 100.12219 3294 ft 197 kts 211°
2026-04-14 08:32 9.74920 100.11510 3280 ft 184 kts 210°
2026-04-14 08:33 9.73871 100.10850 3308 ft 178 kts 211°
2026-04-14 08:33 9.72804 100.10263 3301 ft 171 kts 203°
2026-04-14 08:33 9.71730 100.09776 3299 ft 167 kts 202°
2026-04-14 08:33 9.70660 100.09294 3309 ft 169 kts 202°
2026-04-14 08:34 9.69581 100.08805 3254 ft 172 kts 202°
2026-04-14 08:34 9.68481 100.08305 3017 ft 172 kts 203°
2026-04-14 08:34 9.67400 100.07811 2793 ft 168 kts 202°
2026-04-14 08:34 9.66360 100.07335 2604 ft 163 kts 203°
2026-04-14 08:35 9.65661 100.07015 2422 ft 161 kts 203°
2026-04-14 08:35 9.64673 100.06563 2163 ft 155 kts 202°
2026-04-14 08:35 9.63684 100.06110 1913 ft 154 kts 202°
2026-04-14 08:35 9.62700 100.05660 1681 ft 156 kts 200°
2026-04-14 08:36 9.61650 100.05562 1441 ft 152 kts 169°
2026-04-14 08:36 9.60617 100.05685 1191 ft 152 kts 172°
2026-04-14 08:36 9.59552 100.05788 914 ft 154 kts 171°
2026-04-14 08:36 9.58513 100.05897 720 ft 147 kts 173°
2026-04-14 08:37 9.57500 100.05995 497 ft 147 kts 171°
2026-04-14 08:37 9.56477 100.06106 286 ft 149 kts 173°
2026-04-14 08:37 9.55437 100.06185 70 ft 149 kts 173°
2026-04-14 08:37 9.54605 100.06264 52 ft 68 kts 175°
2026-04-14 08:38 9.54442 100.06280 52 ft 8 kts 174°
2026-04-14 08:38 9.54368 100.06287 52 ft 15 kts 174°
2026-04-14 08:38 9.54259 100.06298 52 ft 16 kts 174°
2026-04-14 08:38 9.54146 100.06309 52 ft 19 kts 175°
2026-04-14 08:39 9.53999 100.06323 52 ft 19 kts 174°
2026-04-14 08:39 9.53887 100.06311 50 ft 13 kts 175°
2026-04-14 08:39 9.53864 100.06345 52 ft 5 kts 70°
2026-04-14 08:39 9.53892 100.06353 52 ft 5 kts 342°
2026-04-14 08:40 9.53998 100.06324 52 ft 23 kts 351°
2026-04-14 08:40 9.54159 100.06308 51 ft 23 kts 354°
2026-04-14 08:40 9.54334 100.06290 52 ft 30 kts 354°
2026-04-14 08:40 9.54542 100.06270 49 ft 29 kts 354°
2026-04-14 08:41 9.54739 100.06250 52 ft 28 kts 353°
2026-04-14 08:41 9.54920 100.06233 52 ft 23 kts 354°
2026-04-14 08:41 9.55017 100.06223 52 ft 11 kts 355°
2026-04-14 08:41 9.55092 100.06218 52 ft 10 kts
2026-04-14 08:42 9.55120 100.06268 52 ft 6 kts 87°
2026-04-14 08:42 9.55120 100.06274 52 ft 2 kts 87°
2026-04-14 08:42 9.55121 100.06288 52 ft 0 kts 87°
2026-04-14 08:43 9.55113 100.06297 52 ft 3 kts 141°
2026-04-14 08:44 9.55102 100.06303 52 ft 0 kts 156°
2026-04-14 08:44 9.55082 100.06313 52 ft 1 kts 129°
2026-04-14 08:45 9.55082 100.06335 52 ft 0 kts 84°
2026-04-14 08:45 9.55082 100.06337 52 ft 0 kts 84°